Time,TemperatureF,DewpointF,PressureIn,WindDirection,WindDirectionDegrees,WindSpeedMPH,WindSpeedGustMPH,Humidity,HourlyPrecipIn,Conditions,Clouds,dailyrainin,SoftwareType,DateUTC
2013-09-30 00:02:00,56.7,48.7,29.31,SSE,154,0.0,0.0,75,0.00,,,0.00,meteohub,2013-09-30 05:02:00,
2013-09-30 00:07:00,56.5,48.7,29.30,SSE,154,0.0,0.0,75,0.00,,,0.00,meteohub,2013-09-30 05:07:00,
2013-09-30 00:12:00,56.1,48.7,29.31,SSE,154,0.0,0.0,76,0.00,,,0.00,meteohub,2013-09-30 05:12:00,
2013-09-30 00:17:00,56.1,48.7,29.30,SSE,154,0.0,0.0,76,0.00,,,0.00,meteohub,2013-09-30 05:17:00,
2013-09-30 00:22:00,55.9,48.6,29.30,SSE,154,0.0,0.0,76,0.00,,,0.00,meteohub,2013-09-30 05:22:00,
2013-09-30 00:27:00,55.8,48.4,29.30,SSE,154,0.0,0.0,76,0.00,,,0.00,meteohub,2013-09-30 05:27:00,
2013-09-30 00:32:00,55.6,48.2,29.30,SSE,154,0.0,0.0,76,0.00,,,0.00,meteohub,2013-09-30 05:32:00,
2013-09-30 00:37:00,55.4,48.4,29.30,SSE,154,0.0,0.0,77,0.00,,,0.00,meteohub,2013-09-30 05:37:00,
2013-09-30 00:42:00,55.2,48.2,29.30,SSE,154,0.0,0.0,77,0.00,,,0.00,meteohub,2013-09-30 05:42:00,
2013-09-30 00:47:00,55.0,48.4,29.30,SSE,154,0.0,0.0,78,0.00,,,0.00,meteohub,2013-09-30 05:47:00,
2013-09-30 00:52:00,54.9,48.2,29.30,SSE,154,0.0,0.0,78,0.00,,,0.00,meteohub,2013-09-30 05:52:00,
2013-09-30 00:57:00,54.9,48.2,29.30,SSE,155,0.0,0.0,78,0.00,,,0.00,meteohub,2013-09-30 05:57:00,
2013-09-30 01:02:00,54.7,48.4,29.30,SSE,155,0.0,0.0,79,0.00,,,0.00,meteohub,2013-09-30 06:02:00,
2013-09-30 01:07:00,54.5,48.2,29.30,SSE,154,0.0,0.0,79,0.00,,,0.00,meteohub,2013-09-30 06:07:00,
2013-09-30 01:12:00,54.3,48.0,29.29,SSE,154,0.0,0.0,79,0.00,,,0.00,meteohub,2013-09-30 06:12:00,
2013-09-30 01:17:00,54.1,47.8,29.30,SSE,155,0.0,0.0,79,0.00,,,0.00,meteohub,2013-09-30 06:17:00,
2013-09-30 01:22:00,54.1,47.8,29.30,SSE,154,0.0,0.0,79,0.00,,,0.00,meteohub,2013-09-30 06:22:00,
2013-09-30 01:27:00,54.0,47.7,29.30,SSE,154,0.0,0.0,79,0.00,,,0.00,meteohub,2013-09-30 06:27:00,
2013-09-30 01:32:00,54.0,47.7,29.30,SSE,154,0.0,0.0,79,0.00,,,0.00,meteohub,2013-09-30 06:32:00,
2013-09-30 01:37:00,53.8,47.5,29.30,SSE,155,0.0,0.0,79,0.00,,,0.00,meteohub,2013-09-30 06:37:00,
2013-09-30 01:42:00,53.6,47.3,29.29,SSE,154,0.0,0.0,79,0.00,,,0.00,meteohub,2013-09-30 06:42:00,
2013-09-30 01:47:00,53.4,47.5,29.29,SSE,154,0.0,0.0,80,0.00,,,0.00,meteohub,2013-09-30 06:47:00,
2013-09-30 01:52:00,53.4,47.5,29.29,SSE,154,0.0,0.0,80,0.00,,,0.00,meteohub,2013-09-30 06:52:00,
2013-09-30 01:57:00,53.2,47.5,29.29,SSE,154,0.0,0.0,81,0.00,,,0.00,meteohub,2013-09-30 06:57:00,
2013-09-30 02:02:00,53.2,47.5,29.29,SSE,154,0.0,0.0,81,0.00,,,0.00,meteohub,2013-09-30 07:02:00,
2013-09-30 02:07:00,53.2,47.5,29.29,SSE,154,0.0,0.0,81,0.00,,,0.00,meteohub,2013-09-30 07:07:00,
2013-09-30 02:12:00,53.2,47.5,29.29,SSE,154,0.0,0.0,81,0.00,,,0.00,meteohub,2013-09-30 07:12:00,
2013-09-30 02:17:00,53.2,47.5,29.28,SSE,154,0.0,0.0,81,0.00,,,0.00,meteohub,2013-09-30 07:17:00,
2013-09-30 02:22:00,53.2,47.5,29.28,SSE,154,0.0,0.0,81,0.00,,,0.00,meteohub,2013-09-30 07:22:00,
2013-09-30 02:27:00,53.2,47.5,29.28,SSE,154,0.0,0.0,81,0.00,,,0.00,meteohub,2013-09-30 07:27:00,
2013-09-30 02:32:00,53.1,47.3,29.28,SSE,154,0.0,0.0,81,0.00,,,0.00,meteohub,2013-09-30 07:32:00,
2013-09-30 02:37:00,53.1,47.3,29.27,SSE,154,0.0,0.0,81,0.00,,,0.00,meteohub,2013-09-30 07:37:00,
2013-09-30 02:42:00,53.1,47.3,29.27,SSE,154,0.0,0.0,81,0.00,,,0.00,meteohub,2013-09-30 07:42:00,
2013-09-30 02:47:00,53.1,47.3,29.27,SSE,154,0.0,0.0,81,0.01,,,0.01,meteohub,2013-09-30 07:47:00,
2013-09-30 02:52:00,52.9,47.5,29.28,SSE,154,0.0,0.0,82,0.01,,,0.01,meteohub,2013-09-30 07:52:00,
2013-09-30 02:57:00,52.9,47.5,29.27,SSE,154,0.0,0.0,82,0.01,,,0.01,meteohub,2013-09-30 07:57:00,
2013-09-30 03:02:00,52.7,47.3,29.27,SSE,154,0.0,0.0,82,0.01,,,0.01,meteohub,2013-09-30 08:02:00,
2013-09-30 03:07:00,52.7,47.3,29.27,SSE,154,0.0,0.0,82,0.01,,,0.01,meteohub,2013-09-30 08:07:00,
2013-09-30 03:12:00,52.5,47.1,29.27,SSE,154,0.0,0.0,82,0.01,,,0.01,meteohub,2013-09-30 08:12:00,
2013-09-30 03:17:00,52.3,46.9,29.26,SSE,154,0.0,0.0,82,0.01,,,0.01,meteohub,2013-09-30 08:17:00,
2013-09-30 03:22:00,52.3,46.9,29.26,SSE,154,0.0,0.0,82,0.01,,,0.01,meteohub,2013-09-30 08:22:00,
2013-09-30 03:27:00,52.2,46.8,29.26,SSE,154,0.0,0.0,82,0.01,,,0.01,meteohub,2013-09-30 08:27:00,
2013-09-30 03:32:00,52.0,46.6,29.26,SSE,154,0.0,0.0,82,0.01,,,0.01,meteohub,2013-09-30 08:32:00,
2013-09-30 03:37:00,52.0,46.6,29.27,SSE,154,0.0,0.0,82,0.01,,,0.01,meteohub,2013-09-30 08:37:00,
2013-09-30 03:42:00,52.0,46.9,29.27,SSE,154,0.0,0.0,83,0.00,,,0.01,meteohub,2013-09-30 08:42:00,
2013-09-30 03:47:00,52.0,46.9,29.27,SSE,154,0.0,0.0,83,0.00,,,0.01,meteohub,2013-09-30 08:47:00,
2013-09-30 03:52:00,51.8,46.8,29.27,SSE,154,0.0,0.0,83,0.00,,,0.01,meteohub,2013-09-30 08:52:00,
2013-09-30 03:57:00,51.6,46.9,29.27,SSE,154,0.0,0.0,84,0.00,,,0.01,meteohub,2013-09-30 08:57:00,
2013-09-30 04:02:00,51.6,46.9,29.27,SSE,154,0.0,0.0,84,0.00,,,0.01,meteohub,2013-09-30 09:02:00,
2013-09-30 04:07:00,51.6,46.9,29.27,SSE,154,0.0,0.0,84,0.00,,,0.01,meteohub,2013-09-30 09:07:00,
2013-09-30 04:12:00,51.4,46.8,29.28,SSE,154,0.0,0.0,84,0.00,,,0.01,meteohub,2013-09-30 09:12:00,
2013-09-30 04:17:00,51.3,46.6,29.27,SSE,154,0.0,0.0,84,0.00,,,0.01,meteohub,2013-09-30 09:17:00,
2013-09-30 04:22:00,51.3,46.9,29.28,SSE,154,0.0,0.0,85,0.00,,,0.01,meteohub,2013-09-30 09:22:00,
2013-09-30 04:27:00,51.1,46.8,29.28,SSE,155,0.0,0.0,85,0.00,,,0.01,meteohub,2013-09-30 09:27:00,
2013-09-30 04:32:00,51.1,46.4,29.28,SSE,154,0.0,0.0,84,0.00,,,0.01,meteohub,2013-09-30 09:32:00,
2013-09-30 04:37:00,50.9,46.2,29.28,SSE,154,0.0,0.0,84,0.00,,,0.01,meteohub,2013-09-30 09:37:00,
2013-09-30 04:42:00,50.7,46.0,29.28,SSE,154,0.0,0.0,84,0.00,,,0.01,meteohub,2013-09-30 09:42:00,
2013-09-30 04:47:00,50.7,46.4,29.28,SSE,154,0.0,0.0,85,0.00,,,0.01,meteohub,2013-09-30 09:47:00,
2013-09-30 04:52:00,50.5,46.2,29.28,SSE,155,0.0,0.0,85,0.00,,,0.01,meteohub,2013-09-30 09:52:00,
2013-09-30 04:57:00,50.5,46.2,29.28,SSE,154,0.0,0.0,85,0.00,,,0.01,meteohub,2013-09-30 09:57:00,
2013-09-30 05:02:00,50.5,46.2,29.28,SSE,154,0.0,0.0,85,0.00,,,0.01,meteohub,2013-09-30 10:02:00,
2013-09-30 05:07:00,50.4,46.0,29.29,SSE,154,0.0,0.0,85,0.00,,,0.01,meteohub,2013-09-30 10:07:00,
2013-09-30 05:12:00,50.4,46.4,29.28,SSE,154,0.0,0.0,86,0.00,,,0.01,meteohub,2013-09-30 10:12:00,
2013-09-30 05:18:00,50.2,46.2,29.28,SSE,154,0.0,0.0,86,0.00,,,0.01,meteohub,2013-09-30 10:18:00,
2013-09-30 05:23:00,50.2,46.2,29.29,SSE,154,0.0,0.0,86,0.00,,,0.01,meteohub,2013-09-30 10:23:00,
2013-09-30 05:28:00,50.2,46.4,29.29,SSE,155,0.0,0.0,87,0.00,,,0.01,meteohub,2013-09-30 10:28:00,
2013-09-30 05:33:00,50.0,46.2,29.29,SSE,154,0.0,0.0,87,0.00,,,0.01,meteohub,2013-09-30 10:33:00,
2013-09-30 05:39:00,50.0,46.2,29.29,SSE,155,0.0,0.0,87,0.00,,,0.01,meteohub,2013-09-30 10:39:00,
2013-09-30 05:44:00,49.8,46.0,29.28,SSE,154,0.0,0.0,87,0.00,,,0.01,meteohub,2013-09-30 10:44:00,
2013-09-30 05:49:00,49.8,46.0,29.28,SSE,154,0.0,0.0,87,0.00,,,0.01,meteohub,2013-09-30 10:49:00,
2013-09-30 05:54:00,49.8,46.4,29.28,SSE,155,0.0,0.0,88,0.00,,,0.01,meteohub,2013-09-30 10:54:00,
2013-09-30 05:59:00,49.6,46.2,29.28,SSE,154,0.0,0.0,88,0.00,,,0.01,meteohub,2013-09-30 10:59:00,
2013-09-30 06:04:00,49.6,46.2,29.28,SSE,154,0.0,0.0,88,0.00,,,0.01,meteohub,2013-09-30 11:04:00,
2013-09-30 06:09:00,49.6,46.6,29.27,SSE,154,0.0,0.0,89,0.00,,,0.01,meteohub,2013-09-30 11:09:00,
2013-09-30 06:14:00,49.6,46.6,29.27,SSE,155,0.0,0.0,89,0.00,,,0.01,meteohub,2013-09-30 11:14:00,
2013-09-30 06:19:00,49.6,46.8,29.27,SSE,155,0.0,1.0,90,0.00,,,0.01,meteohub,2013-09-30 11:19:00,
2013-09-30 06:24:00,49.6,46.8,29.27,SSE,155,0.0,1.0,90,0.00,,,0.01,meteohub,2013-09-30 11:24:00,
2013-09-30 06:29:00,49.6,46.8,29.28,SSE,155,0.0,1.0,90,0.00,,,0.01,meteohub,2013-09-30 11:29:00,
2013-09-30 06:34:00,49.6,46.8,29.28,SSE,155,0.0,0.0,90,0.00,,,0.01,meteohub,2013-09-30 11:34:00,
2013-09-30 06:39:00,49.5,46.6,29.28,SSE,155,0.0,0.0,90,0.00,,,0.01,meteohub,2013-09-30 11:39:00,
2013-09-30 06:44:00,49.5,46.6,29.28,SSE,155,0.0,0.0,90,0.00,,,0.01,meteohub,2013-09-30 11:44:00,
2013-09-30 06:49:00,49.5,46.6,29.28,SSE,155,0.0,0.0,90,0.00,,,0.01,meteohub,2013-09-30 11:49:00,
2013-09-30 06:54:00,49.5,46.6,29.28,SSE,155,0.0,0.0,90,0.00,,,0.01,meteohub,2013-09-30 11:54:00,
2013-09-30 06:59:00,49.3,46.4,29.28,SSE,155,0.0,0.0,90,0.00,,,0.01,meteohub,2013-09-30 11:59:00,
2013-09-30 07:04:00,49.3,46.4,29.28,SSE,155,0.0,0.0,90,0.00,,,0.01,meteohub,2013-09-30 12:04:00,
2013-09-30 07:09:00,49.3,46.4,29.29,SSE,155,0.0,0.0,90,0.00,,,0.01,meteohub,2013-09-30 12:09:00,
2013-09-30 07:14:00,49.3,46.4,29.29,SSE,155,0.0,0.0,90,0.00,,,0.01,meteohub,2013-09-30 12:14:00,
2013-09-30 07:19:00,49.1,46.2,29.29,SSE,155,0.0,0.0,90,0.00,,,0.01,meteohub,2013-09-30 12:19:00,
2013-09-30 07:24:00,48.9,46.0,29.29,SSE,155,0.0,0.0,90,0.00,,,0.01,meteohub,2013-09-30 12:24:00,
2013-09-30 07:29:00,48.9,46.0,29.28,SSE,155,0.0,0.0,90,0.00,,,0.01,meteohub,2013-09-30 12:29:00,
2013-09-30 07:34:00,49.1,46.6,29.28,SSE,155,0.0,0.0,91,0.00,,,0.01,meteohub,2013-09-30 12:34:00,
2013-09-30 07:39:00,49.3,46.8,29.28,SSE,155,0.0,0.0,91,0.00,,,0.01,meteohub,2013-09-30 12:39:00,
2013-09-30 07:44:00,49.3,46.8,29.27,SSE,155,0.0,0.0,91,0.00,,,0.01,meteohub,2013-09-30 12:44:00,
2013-09-30 07:49:00,49.6,47.1,29.27,SSE,155,0.0,0.0,91,0.00,,,0.01,meteohub,2013-09-30 12:49:00,
2013-09-30 07:54:00,50.2,47.3,29.28,SSE,155,0.0,0.0,90,0.00,,,0.01,meteohub,2013-09-30 12:54:00,
2013-09-30 07:59:00,50.5,47.5,29.27,SSE,155,0.0,0.0,89,0.00,,,0.01,meteohub,2013-09-30 12:59:00,
2013-09-30 08:04:00,51.4,47.7,29.28,SSE,155,0.0,0.0,87,0.00,,,0.01,meteohub,2013-09-30 13:04:00,
2013-09-30 08:09:00,52.0,47.8,29.28,SSE,155,0.0,0.0,86,0.00,,,0.01,meteohub,2013-09-30 13:09:00,
2013-09-30 08:14:00,52.9,48.6,29.28,SSE,155,0.0,0.0,85,0.00,,,0.01,meteohub,2013-09-30 13:14:00,
2013-09-30 08:19:00,53.6,48.9,29.28,SSE,155,0.0,0.0,84,0.00,,,0.01,meteohub,2013-09-30 13:19:00,
2013-09-30 08:24:00,54.3,49.3,29.29,SSE,155,0.0,0.0,83,0.00,,,0.01,meteohub,2013-09-30 13:24:00,
2013-09-30 08:29:00,55.0,49.3,29.29,SSE,155,0.0,0.0,81,0.00,,,0.01,meteohub,2013-09-30 13:29:00,
2013-09-30 08:34:00,55.6,49.5,29.29,SSE,155,0.0,0.0,80,0.00,,,0.01,meteohub,2013-09-30 13:34:00,
2013-09-30 08:39:00,56.1,49.6,29.29,SSE,155,0.0,0.0,79,0.00,,,0.01,meteohub,2013-09-30 13:39:00,
2013-09-30 08:44:00,56.8,50.4,29.29,SSE,155,0.0,0.0,79,0.00,,,0.01,meteohub,2013-09-30 13:44:00,
2013-09-30 08:50:00,57.6,50.7,29.29,SSE,155,0.0,0.0,78,0.00,,,0.01,meteohub,2013-09-30 13:50:00,
2013-09-30 08:55:00,58.5,50.9,29.29,SSE,162,1.0,0.0,76,0.00,,,0.01,meteohub,2013-09-30 13:55:00,
2013-09-30 09:00:00,59.4,51.4,29.28,South,184,1.0,4.0,75,0.00,,,0.01,meteohub,2013-09-30 14:00:00,
2013-09-30 09:05:00,60.3,51.6,29.28,SE,135,0.0,4.0,73,0.00,,,0.01,meteohub,2013-09-30 14:05:00,
2013-09-30 09:10:00,61.0,52.0,29.28,SSE,154,6.0,7.0,72,0.00,,,0.01,meteohub,2013-09-30 14:10:00,
2013-09-30 09:15:00,61.3,51.4,29.28,SSE,165,1.0,7.0,70,0.00,,,0.01,meteohub,2013-09-30 14:15:00,
2013-09-30 09:20:00,61.9,52.0,29.28,South,182,0.0,7.0,70,0.00,,,0.01,meteohub,2013-09-30 14:20:00,
2013-09-30 09:25:00,62.2,52.3,29.29,SSE,164,4.0,7.0,70,0.00,,,0.01,meteohub,2013-09-30 14:25:00,
2013-09-30 09:30:00,62.8,52.5,29.28,SE,144,0.0,7.0,69,0.00,,,0.01,meteohub,2013-09-30 14:30:00,
2013-09-30 09:35:00,63.3,53.1,29.29,South,190,2.0,6.0,69,0.00,,,0.01,meteohub,2013-09-30 14:35:00,
2013-09-30 09:40:00,63.9,53.4,29.29,SSW,201,0.0,6.0,69,0.00,,,0.01,meteohub,2013-09-30 14:40:00,
2013-09-30 09:45:00,64.2,53.8,29.29,South,186,0.0,6.0,69,0.00,,,0.01,meteohub,2013-09-30 14:45:00,
2013-09-30 09:50:00,64.6,54.1,29.29,South,175,4.0,6.0,69,0.00,,,0.01,meteohub,2013-09-30 14:50:00,
2013-09-30 09:55:00,64.9,54.5,29.29,SSW,196,2.0,6.0,69,0.00,,,0.01,meteohub,2013-09-30 14:55:00,
2013-09-30 10:00:00,65.7,55.9,29.29,South,180,1.0,6.0,71,0.00,,,0.01,meteohub,2013-09-30 15:00:00,
2013-09-30 10:05:00,66.0,56.3,29.28,South,176,9.0,9.0,71,0.00,,,0.01,meteohub,2013-09-30 15:05:00,
2013-09-30 10:11:00,66.6,56.8,29.28,SE,136,5.0,9.0,71,0.00,,,0.01,meteohub,2013-09-30 15:11:00,
2013-09-30 10:16:00,66.7,57.4,29.28,SSW,193,1.0,10.0,72,0.00,,,0.01,meteohub,2013-09-30 15:16:00,
2013-09-30 10:21:00,67.3,58.6,29.28,SSW,209,4.0,10.0,74,0.00,,,0.01,meteohub,2013-09-30 15:21:00,
2013-09-30 10:26:00,67.8,59.2,29.27,SSE,153,3.0,9.0,74,0.00,,,0.01,meteohub,2013-09-30 15:26:00,
2013-09-30 10:31:00,67.8,59.5,29.27,SSW,202,9.0,12.0,75,0.00,,,0.01,meteohub,2013-09-30 15:31:00,
2013-09-30 10:36:00,67.8,59.9,29.26,South,169,10.0,12.0,76,0.00,,,0.01,meteohub,2013-09-30 15:36:00,
2013-09-30 10:41:00,68.4,60.4,29.26,SSE,161,6.0,11.0,76,0.00,,,0.01,meteohub,2013-09-30 15:41:00,
2013-09-30 10:46:00,68.7,60.8,29.27,SSW,204,1.0,10.0,76,0.00,,,0.01,meteohub,2013-09-30 15:46:00,
2013-09-30 10:51:00,69.1,60.8,29.27,SSW,211,4.0,10.0,75,0.00,,,0.01,meteohub,2013-09-30 15:51:00,
2013-09-30 10:56:00,69.1,61.2,29.27,South,190,0.0,13.0,76,0.00,,,0.01,meteohub,2013-09-30 15:56:00,
2013-09-30 11:01:00,69.3,61.3,29.27,South,174,2.0,15.0,76,0.00,,,0.01,meteohub,2013-09-30 16:01:00,
2013-09-30 11:06:00,70.0,61.7,29.27,South,178,3.0,15.0,75,0.00,,,0.01,meteohub,2013-09-30 16:06:00,
2013-09-30 11:11:00,70.0,61.7,29.27,SSW,193,2.0,15.0,75,0.00,,,0.01,meteohub,2013-09-30 16:11:00,
2013-09-30 11:16:00,70.2,61.9,29.27,SW,223,3.0,13.0,75,0.00,,,0.01,meteohub,2013-09-30 16:16:00,
2013-09-30 11:21:00,70.0,62.1,29.27,WSW,245,6.0,13.0,76,0.00,,,0.01,meteohub,2013-09-30 16:21:00,
2013-09-30 11:26:00,70.2,62.2,29.27,South,175,6.0,11.0,76,0.00,,,0.01,meteohub,2013-09-30 16:26:00,
2013-09-30 11:31:00,70.7,62.4,29.27,SW,234,0.0,12.0,75,0.00,,,0.01,meteohub,2013-09-30 16:31:00,
2013-09-30 11:36:00,71.1,62.4,29.26,South,169,1.0,13.0,74,0.00,,,0.01,meteohub,2013-09-30 16:36:00,
2013-09-30 11:41:00,71.6,62.4,29.26,SSW,211,3.0,13.0,73,0.00,,,0.01,meteohub,2013-09-30 16:41:00,
2013-09-30 11:46:00,72.1,62.2,29.26,SSW,204,1.0,12.0,71,0.00,,,0.01,meteohub,2013-09-30 16:46:00,
2013-09-30 11:51:00,72.7,63.1,29.26,South,170,6.0,11.0,72,0.00,,,0.01,meteohub,2013-09-30 16:51:00,
2013-09-30 11:56:00,72.7,62.2,29.26,SW,221,2.0,15.0,70,0.00,,,0.01,meteohub,2013-09-30 16:56:00,
2013-09-30 12:01:00,72.7,61.5,29.26,SW,215,0.0,15.0,68,0.00,,,0.01,meteohub,2013-09-30 17:01:00,
2013-09-30 12:06:00,72.3,60.8,29.26,WSW,242,0.0,15.0,67,0.00,,,0.01,meteohub,2013-09-30 17:06:00,
2013-09-30 12:11:00,72.1,60.6,29.26,WSW,243,5.0,14.0,67,0.00,,,0.01,meteohub,2013-09-30 17:11:00,
2013-09-30 12:17:00,72.0,60.8,29.26,SSW,211,4.0,14.0,68,0.00,,,0.01,meteohub,2013-09-30 17:17:00,
2013-09-30 12:22:00,71.8,60.6,29.26,SSW,193,2.0,11.0,68,0.00,,,0.01,meteohub,2013-09-30 17:22:00,
2013-09-30 12:27:00,72.9,61.3,29.26,WSW,242,3.0,11.0,67,0.00,,,0.01,meteohub,2013-09-30 17:27:00,
2013-09-30 12:32:00,73.2,59.9,29.25,SSW,192,0.0,11.0,63,0.00,,,0.01,meteohub,2013-09-30 17:32:00,
2013-09-30 12:37:00,73.8,60.4,29.25,SSE,152,10.0,14.0,63,0.00,,,0.01,meteohub,2013-09-30 17:37:00,
2013-09-30 12:42:00,73.4,61.0,29.25,SSE,167,6.0,15.0,65,0.00,,,0.01,meteohub,2013-09-30 17:42:00,
2013-09-30 12:47:00,73.6,61.2,29.25,SW,215,0.0,15.0,65,0.00,,,0.01,meteohub,2013-09-30 17:47:00,
2013-09-30 12:52:00,73.9,60.1,29.25,WSW,252,2.0,15.0,62,0.00,,,0.01,meteohub,2013-09-30 17:52:00,
2013-09-30 12:57:00,74.3,60.4,29.25,SW,226,6.0,14.0,62,0.00,,,0.01,meteohub,2013-09-30 17:57:00,
2013-09-30 13:02:00,73.8,60.8,29.25,SSW,204,7.0,14.0,64,0.00,,,0.01,meteohub,2013-09-30 18:02:00,
2013-09-30 13:07:00,73.6,61.2,29.25,SW,232,3.0,14.0,65,0.00,,,0.01,meteohub,2013-09-30 18:07:00,
2013-09-30 13:12:00,73.9,61.3,29.24,WSW,237,5.0,11.0,65,0.00,,,0.01,meteohub,2013-09-30 18:12:00,
2013-09-30 13:17:00,74.1,61.5,29.24,West,271,3.0,11.0,65,0.00,,,0.01,meteohub,2013-09-30 18:17:00,
2013-09-30 13:22:00,74.3,61.7,29.24,South,181,5.0,11.0,65,0.00,,,0.01,meteohub,2013-09-30 18:22:00,
2013-09-30 13:27:00,74.7,61.2,29.23,SSW,206,1.0,11.0,63,0.00,,,0.01,meteohub,2013-09-30 18:27:00,
2013-09-30 13:32:00,74.3,60.4,29.23,West,275,3.0,14.0,62,0.00,,,0.01,meteohub,2013-09-30 18:32:00,
2013-09-30 13:37:00,74.5,60.6,29.23,SW,225,5.0,14.0,62,0.00,,,0.01,meteohub,2013-09-30 18:37:00,
2013-09-30 13:42:00,74.8,60.4,29.23,SSW,209,6.0,14.0,61,0.00,,,0.01,meteohub,2013-09-30 18:42:00,
2013-09-30 13:47:00,75.0,60.3,29.22,SW,236,4.0,14.0,60,0.00,,,0.01,meteohub,2013-09-30 18:47:00,
2013-09-30 13:52:00,74.8,60.1,29.22,South,176,5.0,14.0,60,0.00,,,0.01,meteohub,2013-09-30 18:52:00,
2013-09-30 13:57:00,75.0,60.6,29.22,SSW,193,10.0,14.0,61,0.00,,,0.01,meteohub,2013-09-30 18:57:00,
2013-09-30 14:02:00,75.0,60.6,29.22,SSE,161,0.0,14.0,61,0.00,,,0.01,meteohub,2013-09-30 19:02:00,
2013-09-30 14:07:00,75.6,61.2,29.22,South,182,6.0,14.0,61,0.00,,,0.01,meteohub,2013-09-30 19:07:00,
2013-09-30 14:12:00,75.4,60.4,29.22,South,172,3.0,14.0,60,0.00,,,0.01,meteohub,2013-09-30 19:12:00,
2013-09-30 14:17:00,75.4,61.0,29.21,SW,218,2.0,12.0,61,0.00,,,0.01,meteohub,2013-09-30 19:17:00,
2013-09-30 14:22:00,75.6,61.2,29.21,South,173,5.0,14.0,61,0.00,,,0.01,meteohub,2013-09-30 19:22:00,
2013-09-30 14:27:00,75.0,60.6,29.21,SSW,195,5.0,14.0,61,0.00,,,0.01,meteohub,2013-09-30 19:27:00,
2013-09-30 14:32:00,75.0,60.6,29.21,SW,225,1.0,14.0,61,0.00,,,0.01,meteohub,2013-09-30 19:32:00,
2013-09-30 14:37:00,75.6,60.6,29.21,SSW,205,3.0,13.0,60,0.00,,,0.01,meteohub,2013-09-30 19:37:00,
2013-09-30 14:42:00,75.7,60.4,29.20,SW,219,0.0,11.0,59,0.00,,,0.01,meteohub,2013-09-30 19:42:00,
2013-09-30 14:47:00,76.3,60.4,29.20,SSW,206,3.0,11.0,58,0.00,,,0.01,meteohub,2013-09-30 19:47:00,
2013-09-30 14:52:00,76.6,59.2,29.21,SSW,197,4.0,11.0,55,0.00,,,0.01,meteohub,2013-09-30 19:52:00,
2013-09-30 14:57:00,76.5,59.2,29.20,South,186,1.0,12.0,55,0.00,,,0.01,meteohub,2013-09-30 19:57:00,
2013-09-30 15:02:00,76.3,59.9,29.21,South,186,6.0,12.0,57,0.00,,,0.01,meteohub,2013-09-30 20:02:00,
2013-09-30 15:07:00,76.1,58.8,29.21,South,187,2.0,13.0,55,0.00,,,0.01,meteohub,2013-09-30 20:07:00,
2013-09-30 15:12:00,76.5,59.5,29.21,WSW,246,5.0,13.0,56,0.00,,,0.01,meteohub,2013-09-30 20:12:00,
2013-09-30 15:17:00,76.6,58.8,29.20,SSE,148,7.0,13.0,54,0.00,,,0.01,meteohub,2013-09-30 20:17:00,
2013-09-30 15:22:00,76.6,59.2,29.20,SSE,167,2.0,13.0,55,0.00,,,0.01,meteohub,2013-09-30 20:22:00,
2013-09-30 15:27:00,76.8,59.0,29.20,SSE,161,5.0,13.0,54,0.00,,,0.01,meteohub,2013-09-30 20:27:00,
2013-09-30 15:32:00,77.4,58.3,29.19,SSW,210,0.0,13.0,52,0.00,,,0.01,meteohub,2013-09-30 20:32:00,
2013-09-30 15:37:00,77.5,59.0,29.19,SE,141,3.0,12.0,53,0.00,,,0.01,meteohub,2013-09-30 20:37:00,
2013-09-30 15:42:00,77.7,59.2,29.19,South,177,6.0,11.0,53,0.00,,,0.01,meteohub,2013-09-30 20:42:00,
2013-09-30 15:48:00,77.5,59.0,29.19,SW,222,6.0,15.0,53,0.00,,,0.01,meteohub,2013-09-30 20:48:00,
2013-09-30 15:53:00,77.4,58.8,29.19,South,172,10.0,15.0,53,0.00,,,0.01,meteohub,2013-09-30 20:53:00,
2013-09-30 15:58:00,77.2,59.2,29.19,SE,138,13.0,15.0,54,0.00,,,0.01,meteohub,2013-09-30 20:58:00,
2013-09-30 16:03:00,77.2,59.7,29.19,SE,140,4.0,14.0,55,0.00,,,0.01,meteohub,2013-09-30 21:03:00,
2013-09-30 16:08:00,77.2,59.7,29.19,SSW,198,1.0,15.0,55,0.00,,,0.01,meteohub,2013-09-30 21:08:00,
2013-09-30 16:13:00,77.4,61.0,29.19,SSW,212,0.0,15.0,57,0.00,,,0.01,meteohub,2013-09-30 21:13:00,
2013-09-30 16:18:00,78.1,60.6,29.19,South,173,10.0,15.0,55,0.00,,,0.01,meteohub,2013-09-30 21:18:00,
2013-09-30 16:23:00,78.1,60.6,29.19,South,177,0.0,14.0,55,0.00,,,0.01,meteohub,2013-09-30 21:23:00,
2013-09-30 16:28:00,77.9,60.4,29.19,South,186,4.0,14.0,55,0.00,,,0.01,meteohub,2013-09-30 21:28:00,
2013-09-30 16:33:00,77.7,60.3,29.19,SSW,196,4.0,14.0,55,0.00,,,0.01,meteohub,2013-09-30 21:33:00,
2013-09-30 16:38:00,77.7,60.3,29.19,SW,227,6.0,16.0,55,0.00,,,0.01,meteohub,2013-09-30 21:38:00,
2013-09-30 16:43:00,77.5,60.1,29.19,SW,232,5.0,16.0,55,0.00,,,0.01,meteohub,2013-09-30 21:43:00,
2013-09-30 16:49:00,77.4,60.4,29.19,West,264,0.0,16.0,56,0.00,,,0.01,meteohub,2013-09-30 21:49:00,
2013-09-30 16:54:00,77.2,59.7,29.18,SW,229,8.0,15.0,55,0.00,,,0.01,meteohub,2013-09-30 21:54:00,
2013-09-30 16:59:00,76.8,59.4,29.18,South,180,2.0,16.0,55,0.00,,,0.01,meteohub,2013-09-30 21:59:00,
2013-09-30 17:04:00,76.8,59.9,29.19,SW,229,5.0,16.0,56,0.00,,,0.01,meteohub,2013-09-30 22:04:00,
2013-09-30 17:09:00,76.8,59.9,29.19,SSW,201,3.0,16.0,56,0.00,,,0.01,meteohub,2013-09-30 22:09:00,
2013-09-30 17:15:00,76.8,59.9,29.19,South,187,2.0,14.0,56,0.00,,,0.01,meteohub,2013-09-30 22:15:00,
2013-09-30 17:20:00,76.6,59.7,29.19,SSW,209,4.0,14.0,56,0.00,,,0.01,meteohub,2013-09-30 22:20:00,
2013-09-30 17:25:00,76.6,59.7,29.19,WSW,240,0.0,14.0,56,0.00,,,0.01,meteohub,2013-09-30 22:25:00,
2013-09-30 17:30:00,76.6,60.3,29.20,WSW,249,4.0,14.0,57,0.00,,,0.01,meteohub,2013-09-30 22:30:00,
2013-09-30 17:35:00,76.6,60.3,29.20,South,187,1.0,11.0,57,0.00,,,0.01,meteohub,2013-09-30 22:35:00,
2013-09-30 17:40:00,76.5,60.1,29.19,SW,226,10.0,13.0,57,0.00,,,0.01,meteohub,2013-09-30 22:40:00,
2013-09-30 17:45:00,76.3,60.4,29.19,SSW,210,0.0,14.0,58,0.00,,,0.01,meteohub,2013-09-30 22:45:00,
2013-09-30 17:50:00,75.9,60.1,29.19,SSE,156,1.0,17.0,58,0.00,,,0.01,meteohub,2013-09-30 22:50:00,
2013-09-30 17:55:00,75.7,60.4,29.20,SW,222,2.0,17.0,59,0.00,,,0.01,meteohub,2013-09-30 22:55:00,
2013-09-30 18:00:00,75.6,60.3,29.20,SSW,209,0.0,17.0,59,0.00,,,0.01,meteohub,2013-09-30 23:00:00,
2013-09-30 18:05:00,75.4,60.4,29.20,SSW,209,0.0,11.0,60,0.00,,,0.01,meteohub,2013-09-30 23:05:00,
2013-09-30 18:10:00,75.0,60.3,29.20,South,180,3.0,11.0,60,0.00,,,0.01,meteohub,2013-09-30 23:10:00,
2013-09-30 18:15:00,74.7,59.9,29.20,SSW,202,0.0,12.0,60,0.00,,,0.01,meteohub,2013-09-30 23:15:00,
2013-09-30 18:20:00,74.5,59.7,29.20,SSW,208,3.0,12.0,60,0.00,,,0.01,meteohub,2013-09-30 23:20:00,
2013-09-30 18:25:00,74.1,59.7,29.20,SW,216,3.0,8.0,61,0.00,,,0.01,meteohub,2013-09-30 23:25:00,
2013-09-30 18:30:00,73.8,59.9,29.20,SSW,205,5.0,8.0,62,0.00,,,0.01,meteohub,2013-09-30 23:30:00,
2013-09-30 18:35:00,73.6,60.3,29.20,South,190,0.0,7.0,63,0.00,,,0.01,meteohub,2013-09-30 23:35:00,
2013-09-30 18:40:00,73.0,60.1,29.20,SW,234,0.0,7.0,64,0.00,,,0.01,meteohub,2013-09-30 23:40:00,
2013-09-30 18:45:00,72.9,60.4,29.21,SW,220,0.0,7.0,65,0.00,,,0.01,meteohub,2013-09-30 23:45:00,
2013-09-30 18:50:00,72.3,60.3,29.21,SSW,208,0.0,6.0,66,0.00,,,0.01,meteohub,2013-09-30 23:50:00,
2013-09-30 18:55:00,72.0,60.8,29.21,SW,215,0.0,5.0,68,0.00,,,0.01,meteohub,2013-09-30 23:55:00,
2013-09-30 19:00:00,71.6,60.8,29.21,SSW,211,0.0,5.0,69,0.00,,,0.01,meteohub,2013-10-01 00:00:00,
2013-09-30 19:05:00,71.2,61.0,29.20,SW,228,4.0,5.0,70,0.00,,,0.00,meteohub,2013-10-01 00:05:00,
2013-09-30 19:10:00,70.9,61.0,29.20,SSW,196,1.0,7.0,71,0.00,,,0.00,meteohub,2013-10-01 00:10:00,
2013-09-30 19:15:00,70.3,60.8,29.20,South,169,0.0,7.0,72,0.00,,,0.00,meteohub,2013-10-01 00:15:00,
2013-09-30 19:20:00,70.0,61.0,29.20,South,174,1.0,7.0,73,0.00,,,0.00,meteohub,2013-10-01 00:20:00,
2013-09-30 19:25:00,69.4,60.8,29.20,South,180,1.0,7.0,74,0.00,,,0.00,meteohub,2013-10-01 00:25:00,
2013-09-30 19:30:00,69.3,60.6,29.20,SSW,211,1.0,5.0,74,0.00,,,0.00,meteohub,2013-10-01 00:30:00,
2013-09-30 19:36:00,69.1,60.8,29.20,South,190,0.0,5.0,75,0.00,,,0.00,meteohub,2013-10-01 00:36:00,
2013-09-30 19:41:00,68.7,60.8,29.20,South,171,0.0,5.0,76,0.00,,,0.00,meteohub,2013-10-01 00:41:00,
2013-09-30 19:46:00,68.7,60.8,29.20,SSW,192,2.0,7.0,76,0.00,,,0.00,meteohub,2013-10-01 00:46:00,
2013-09-30 19:51:00,68.5,61.0,29.20,SSW,192,0.0,9.0,77,0.00,,,0.00,meteohub,2013-10-01 00:51:00,
2013-09-30 19:56:00,68.4,60.8,29.20,SSW,198,0.0,10.0,77,0.00,,,0.00,meteohub,2013-10-01 00:56:00,
2013-09-30 20:01:00,68.2,60.6,29.20,South,186,1.0,10.0,77,0.00,,,0.00,meteohub,2013-10-01 01:01:00,
2013-09-30 20:06:00,67.8,60.6,29.20,SSW,192,2.0,6.0,78,0.00,,,0.00,meteohub,2013-10-01 01:06:00,
2013-09-30 20:11:00,67.6,60.6,29.20,South,186,0.0,6.0,78,0.00,,,0.00,meteohub,2013-10-01 01:11:00,
2013-09-30 20:16:00,67.6,61.0,29.20,SSW,202,0.0,5.0,79,0.00,,,0.00,meteohub,2013-10-01 01:16:00,
2013-09-30 20:21:00,67.5,60.8,29.21,SSW,196,0.0,6.0,79,0.00,,,0.00,meteohub,2013-10-01 01:21:00,
2013-09-30 20:26:00,67.3,60.6,29.21,South,171,0.0,6.0,79,0.00,,,0.00,meteohub,2013-10-01 01:26:00,
2013-09-30 20:31:00,67.1,60.8,29.21,South,171,0.0,5.0,80,0.00,,,0.00,meteohub,2013-10-01 01:31:00,
2013-09-30 20:36:00,66.9,60.6,29.20,South,174,0.0,5.0,80,0.00,,,0.00,meteohub,2013-10-01 01:36:00,
2013-09-30 20:41:00,66.7,60.4,29.20,South,170,0.0,1.0,80,0.00,,,0.00,meteohub,2013-10-01 01:41:00,
2013-09-30 20:46:00,66.6,60.6,29.20,South,170,0.0,4.0,81,0.00,,,0.00,meteohub,2013-10-01 01:46:00,
2013-09-30 20:51:00,66.4,60.4,29.20,South,188,0.0,4.0,81,0.00,,,0.00,meteohub,2013-10-01 01:51:00,
2013-09-30 20:56:00,66.0,60.4,29.21,South,188,0.0,4.0,82,0.00,,,0.00,meteohub,2013-10-01 01:56:00,
2013-09-30 21:01:00,65.8,60.3,29.21,South,188,0.0,4.0,82,0.00,,,0.00,meteohub,2013-10-01 02:01:00,
2013-09-30 21:06:00,65.7,60.4,29.21,South,188,0.0,3.0,83,0.00,,,0.00,meteohub,2013-10-01 02:06:00,
2013-09-30 21:11:00,65.7,60.4,29.21,South,188,0.0,3.0,83,0.00,,,0.00,meteohub,2013-10-01 02:11:00,
2013-09-30 21:16:00,65.5,60.3,29.20,South,188,0.0,3.0,83,0.00,,,0.00,meteohub,2013-10-01 02:16:00,
2013-09-30 21:21:00,65.3,60.3,29.21,South,188,0.0,2.0,84,0.00,,,0.00,meteohub,2013-10-01 02:21:00,
2013-09-30 21:26:00,65.1,60.1,29.21,South,188,0.0,2.0,84,0.00,,,0.00,meteohub,2013-10-01 02:26:00,
2013-09-30 21:31:00,65.1,60.1,29.21,South,188,0.0,2.0,84,0.00,,,0.00,meteohub,2013-10-01 02:31:00,
2013-09-30 21:36:00,64.9,59.9,29.21,South,188,0.0,0.0,84,0.00,,,0.00,meteohub,2013-10-01 02:36:00,
2013-09-30 21:41:00,64.8,60.1,29.20,South,188,0.0,0.0,85,0.00,,,0.00,meteohub,2013-10-01 02:41:00,
2013-09-30 21:46:00,64.6,59.9,29.20,South,173,0.0,4.0,85,0.00,,,0.00,meteohub,2013-10-01 02:46:00,
2013-09-30 21:51:00,64.6,59.9,29.21,South,180,1.0,6.0,85,0.00,,,0.00,meteohub,2013-10-01 02:51:00,
2013-09-30 21:56:00,64.4,60.1,29.20,South,189,0.0,6.0,86,0.00,,,0.00,meteohub,2013-10-01 02:56:00,
2013-09-30 22:01:00,64.2,59.9,29.20,South,187,0.0,6.0,86,0.00,,,0.00,meteohub,2013-10-01 03:01:00,
2013-09-30 22:06:00,64.2,59.9,29.21,South,188,0.0,4.0,86,0.00,,,0.00,meteohub,2013-10-01 03:06:00,
2013-09-30 22:11:00,64.0,59.7,29.21,South,190,0.0,4.0,86,0.00,,,0.00,meteohub,2013-10-01 03:11:00,
2013-09-30 22:16:00,64.0,59.7,29.21,South,184,1.0,5.0,86,0.00,,,0.00,meteohub,2013-10-01 03:16:00,
2013-09-30 22:21:00,63.9,59.9,29.21,South,180,0.0,5.0,87,0.00,,,0.00,meteohub,2013-10-01 03:21:00,
2013-09-30 22:26:00,63.9,59.9,29.21,South,181,6.0,6.0,87,0.00,,,0.00,meteohub,2013-10-01 03:26:00,
2013-09-30 22:31:00,63.7,59.7,29.21,SSE,168,0.0,7.0,87,0.00,,,0.00,meteohub,2013-10-01 03:31:00,
2013-09-30 22:36:00,63.7,59.7,29.21,South,178,2.0,9.0,87,0.00,,,0.00,meteohub,2013-10-01 03:36:00,
2013-09-30 22:41:00,63.7,59.7,29.21,SSE,159,2.0,9.0,87,0.00,,,0.00,meteohub,2013-10-01 03:41:00,
2013-09-30 22:46:00,63.7,60.1,29.21,South,190,0.0,9.0,88,0.00,,,0.00,meteohub,2013-10-01 03:46:00,
2013-09-30 22:51:00,63.7,60.1,29.21,South,187,3.0,7.0,88,0.00,,,0.00,meteohub,2013-10-01 03:51:00,
2013-09-30 22:56:00,63.7,60.1,29.21,South,178,1.0,7.0,88,0.00,,,0.00,meteohub,2013-10-01 03:56:00,
2013-09-30 23:01:00,63.7,60.1,29.21,SSW,194,2.0,7.0,88,0.00,,,0.00,meteohub,2013-10-01 04:01:00,
2013-09-30 23:02:00,63.7,60.1,29.21,South,182,3.0,7.0,88,0.00,,,0.00,meteohub,2013-10-01 04:02:00,
2013-09-30 23:07:00,63.7,60.1,29.21,SSW,198,0.0,7.0,88,0.00,,,0.00,meteohub,2013-10-01 04:07:00,
2013-09-30 23:12:00,63.7,60.1,29.21,South,190,3.0,8.0,88,0.00,,,0.00,meteohub,2013-10-01 04:12:00,
2013-09-30 23:17:00,63.7,59.7,29.21,SSW,192,2.0,8.0,87,0.00,,,0.00,meteohub,2013-10-01 04:17:00,
2013-09-30 23:22:00,63.7,59.7,29.22,SSW,192,0.0,7.0,87,0.00,,,0.00,meteohub,2013-10-01 04:22:00,
2013-09-30 23:27:00,63.7,59.7,29.21,South,180,0.0,8.0,87,0.00,,,0.00,meteohub,2013-10-01 04:27:00,
2013-09-30 23:32:00,63.7,59.7,29.22,South,184,0.0,8.0,87,0.00,,,0.00,meteohub,2013-10-01 04:32:00,
2013-09-30 23:37:00,63.7,59.7,29.21,SSW,194,0.0,7.0,87,0.00,,,0.00,meteohub,2013-10-01 04:37:00,
2013-09-30 23:42:00,63.7,59.7,29.21,SSW,199,1.0,7.0,87,0.00,,,0.00,meteohub,2013-10-01 04:42:00,
2013-09-30 23:47:00,63.7,59.7,29.21,South,179,5.0,6.0,87,0.00,,,0.00,meteohub,2013-10-01 04:47:00,
2013-09-30 23:52:00,63.7,59.7,29.21,SSW,211,0.0,10.0,87,0.00,,,0.00,meteohub,2013-10-01 04:52:00,
2013-09-30 23:57:00,63.7,59.7,29.21,South,185,0.0,10.0,87,0.00,,,0.00,meteohub,2013-10-01 04:57:00,